カタログに戻る

STARLINK-4580

運用中通信VLEO
NORAD 53579·PAYLOAD·🇺🇸 United States

打ち上げ Aug 19, 2022 から Cape Canaveral Space Force Station

Loading…

次のパス (今後24時間)

TLE

最新Source: CelesTrak SupGP

元期: Sep 14, 2026, 21:26 UTC

1 53579C 22101BE  26257.89354167  .00046490  00000+0  13741-2 0  2577
2 53579  53.1562 270.0247 0001077 100.8331 110.6808 15.34355340    14

AllMySatでSTARLINK-4580をリアルタイム追跡

Download on the App Store